DELTA 1 DEB

Satellite information

Favourite Embed

Satellite Type and Status

DEBRISIN ORBIT

Key statistics

Satellite DELTA 1 DEB at a glance.

Uptime

17524

Days in orbit

Revolutions

≈ 13.7

Per day

Orbit

LEO

Low Earth Orbit

Inclination

29.1

Latest

Satellite identification and parameters

Extended collection of information and parameters for DELTA 1 DEB.

Object identification

Identified? True

Debris? True

Object name: DELTA 1 DEB

International designator: 1977-065DC

Object number (NORAD): 10306

Object ID (CCSDS): 10306

Country: UNITED STATES OF AMERICA (US)

Current information (Y/N): Y

RCS size: SMALL

Orbital parameters

Period: 105.408 minutes

Inclination: 29.1021 deg

SMA: 7391.67 km

Apoapsis: 1502.168 km

Periapsis: 524.902 km

RAAN: 140.5379 deg

Eccentricy: 0.0661059

Argument of periapsis: 94.6047 deg

Mean anomaly: 273.0277 deg

Mean motion: 13.6612007 rev/day

Mean motion (dot): 0.00001796 rev/day2

B* drag term: 0.00042963 1/REarth

Two-line elements (TLE)

Creation date: July 3, 2025, 5:26 p.m.

Reference frame: TEME

Reference center: EARTH

Epoch: July 3, 2025, 4:12 a.m. UTC

TLE line 0: 0 DELTA 1 DEB

TLE line 1: 1 10306U 77065DC 25184.17568260 .00001796 00000-0 42963-3 0 9990

TLE line 2: 2 10306 29.1021 140.5379 0661059 94.6047 273.0277 13.66120070343243

Live tracking on map

Real-time ground track for satellite DELTA 1 DEB.

In-orbit conjunctions

A list of the most updated potential collisions computed for object DELTA 1 DEB.

Target Orbit TCA Probability of collision Miss distance Type
ORBCOMM FM 1 LEO 2025-02-16 01:05:39 0.0001013267 34.0 (m) PAYLOAD

Associated space launch

Japanese meteorological satellite built by Hughes Space and Communications Company

DELTA 1 DEB was lifted into orbit during the mission ‘Delta 2914 | Himawari’, on board a Delta 2914 space rocket.

The launch took place on July 14, 1977, 10:39 a.m. from Space Launch Complex 17B.

For more information about the launch, click the button.

Launch to space Delta 2914 | Himawari
Delta 2914 | Himawari

Agency: N/A

Status: Launch Successful

Launch date: July 14, 1977, 10:39 a.m. UTC

Rocket: Delta 2914

Launch pad: Space Launch Complex 17B

Location: Cape Canaveral SFS, FL, USA

...

Latest news about this satellite

There are no fresh news available about this satellite. Check back as we update our databases every day.


Newsletter sign-up

Weekly statistics, charts and insights to help you stay on top of the space industry.